This demonstration page uses our WeatherBlox Daily Observations layout. Learn more.

Left ArrowRight Arrow

41.55636, -103.73856

Hourly Observations for March 25, 2017

Temp ( °F °C ) Dew Point ( °F °C ) Humidity (%) Winds ( mph kmh ) Pressure ( in mb ) Visibility ( mi km ) Precip ( " mm )
12:53 am 00:53 Clear 32 0 25 -3.9 75 75 E 6 9 30.09 1019 10 16 0.00 0.00
1:53 am 01:53 Clear 31 -0.6 25 -3.9 79 79 E 7 11 30.07 1018 10 16 0.00 0.00
2:53 am 02:53 Clear 32 0 26 -3.3 79 79 E 8 13 30.05 1018 10 16 0.00 0.00
3:53 am 03:53 Clear 31 -0.6 25 -3.9 79 79 E 8 13 30.02 1017 10 16 0.00 0.00
4:53 am 04:53 Clear 30 -1.1 25 -3.9 82 82 E 8 13 30.03 1017 10 16 0.00 0.00
5:53 am 05:53 Clear 30 -1.1 25 -3.9 82 82 E 10 17 30.02 1017 10 16 0.00 0.00
6:53 am 06:53 Sunny 31 -0.6 27 -2.8 85 85 ESE 10 17 30.03 1017 10 16 0.00 0.00
7:53 am 07:53 Sunny 34 1.1 29 -1.7 82 82 ESE 12 19 30.06 1018 10 16 0.00 0.00
8:53 am 08:53 Sunny 42 5.6 33 0.6 71 71 ESE 9 15 30.04 1017 10 16 0.00 0.00
9:53 am 09:53 Sunny 50 10 33 0.6 52 52 SE 8 13 30.01 1016 10 16 0.00 0.00
10:53 am 10:53 Sunny 56 13.3 34 1.1 44 44 S 8 13 29.96 1015 10 16 0.00 0.00
11:53 am 11:53 Sunny 61 16.1 34 1.1 36 36 S 8 13 29.92 1013 10 16 0.00 0.00
12:53 pm 12:53 Sunny 64 17.8 31 -0.6 29 29 SSW 8 13 29.89 1012 10 16 0.00 0.00
1:53 pm 13:53 Sunny 66 18.9 30 -1.1 26 26 ESE 5 7 29.85 1011 10 16 0.00 0.00
2:53 pm 14:53 Sunny 67 19.4 29 -1.7 24 24 SSE 9 15 29.81 1010 10 16 0.00 0.00
3:53 pm 15:53 Sunny 67 19.4 27 -2.8 22 22 ESE 5 7 29.79 1009 10 16 0.00 0.00
4:53 pm 16:53 Sunny 67 19.4 27 -2.8 22 22 SE 7 11 29.78 1009 10 16 0.00 0.00
5:53 pm 17:53 Sunny 65 18.3 31 -0.6 28 28 ESE 10 17 29.78 1008 10 16 0.00 0.00
6:53 pm 18:53 Sunny 60 15.6 32 0 35 35 SE 8 13 29.79 1009 10 16 0.00 0.00
7:53 pm 19:53 Clear 53 11.7 33 0.6 47 47 ESE 6 9 29.80 1009 10 16 0.00 0.00
8:53 pm 20:53 Clear 53 11.7 33 0.6 47 47 E 8 13 29.80 1009 10 16 0.00 0.00
9:53 pm 21:53 Clear 50 10 34 1.1 54 54 ESE 9 15 29.78 1009 10 16 0.00 0.00
10:53 pm 22:53 Clear 49 9.4 34 1.1 56 56 ESE 10 17 29.76 1008 10 16 0.00 0.00
11:53 pm 23:53 Clear 48 8.9 33 0.6 56 56 ESE 9 15 29.75 1007 10 16 0.00 0.00

Powered by AerisWeather